2018-094F (43715 NORAD) Tracking and Keplerian Element Data

This shows tracking and keplerian element data for the satellite.

Feedback or suggestion? Click here.




ElementValue
Catalog43715
Name2018-094F
Epoch Orbit435
Epoch Day352.85712077
Epoch Year2018
RAAN357.3679
Inclination97.3609
Eccentricity0.0020594
Argument of Perigee219.9312
Mean Anonmoly140.0413
Mean Motion15.27363392
Decay Rate2.029E-05
L11 43715U 18094F 18352.85712077 .00002029 00000-0 78089-4 0 9997
L22 43715 97.3609 357.3679 0020594 219.9312 140.0413 15.27363392 4359

Live tracking and technical data element details for 2018-094F (NORAD 43715). 2018-094F can be tracked NOW for your location showing map with azimuth and elevation plus other details from your city location.

Track the satellite on the map from your city or location and see movement details for azimuth, elevation, latitude, longitude, range, height, and movement on the map or in text.







IsCatalogInMostPopularTable: catalog: 43715, numindb: 90
Update: records affected: 1



GetName: 43715 2018-094F

Hit Count: updated at: Sun, 26 May 2019 19:48:57 GMT